This is the latest recevied weather packets stored in our database for station/object KY4LEX. If no packets are shown the sender has not sent any weather packets the latest 10 day(s).
| Time | Temp. | Humidity | Pressure | Rain* | Wind** | Luminosity | Snow |
|---|---|---|---|---|---|---|---|
| 1777735153 | 12.78° C | 50% | 1023.1 hPa | 0 mm | - | 125 W/m² | - |
| 1777734849 | 12.78° C | 48% | 1023.3 hPa | 0 mm | - | 634 W/m² | - |
| 1777734546 | 12.22° C | 50% | 1023.3 hPa | 0 mm | - | 589 W/m² | - |
| 1777734242 | 12.78° C | 48% | 1023.3 hPa | 0 mm | - | 545 W/m² | - |
| 1777733939 | 11.67° C | 51% | 1023.2 hPa | 0 mm | - | 519 W/m² | - |
| 1777733635 | 11.11° C | 53% | 1023.2 hPa | 0 mm | - | 529 W/m² | - |
| 1777733332 | 12.22° C | 49% | 1023.2 hPa | 0 mm | - | 521 W/m² | - |
| 1777733029 | 11.11° C | 54% | 1023.1 hPa | 0 mm | - | 345 W/m² | - |
| 1777732725 | 10.56° C | 53% | 1023 hPa | 0 mm | - | 156 W/m² | - |
| 1777732422 | 11.11° C | 55% | 1023.2 hPa | 0 mm | - | 226 W/m² | - |
| 1777732120 | 10.56° C | 54% | 1023.3 hPa | 0 mm | - | 114 W/m² | - |
| 1777731817 | 10.56° C | 56% | 1023 hPa | 0 mm | - | 142 W/m² | - |
| 1777731513 | 10.56° C | 55% | 1023 hPa | 0 mm | - | 83 W/m² | - |
| 1777731212 | 10.56° C | 59% | 1022.9 hPa | 0 mm | - | 176 W/m² | - |
| 1777730909 | 10.56° C | 60% | 1023 hPa | 0 mm | - | 336 W/m² | - |
| 1777730303 | 10° C | 57% | 1023.1 hPa | 0 mm | - | 138 W/m² | - |
| 1777730000 | 10° C | 60% | 1023 hPa | 0 mm | - | 79 W/m² | - |
| 1777729089 | 9.44° C | 60% | 1022.9 hPa | 0 mm | - | 179 W/m² | - |
| 1777728786 | 8.89° C | 65% | 1023 hPa | 0 mm | - | 92 W/m² | - |
| 1777728483 | 8.89° C | 64% | 1023.2 hPa | 0 mm | - | 68 W/m² | - |
| 1777728180 | 8.89° C | 65% | 1022.9 hPa | 0 mm | - | 59 W/m² | - |
| 1777727877 | 8.33° C | 62% | 1022.9 hPa | 0 mm | - | 79 W/m² | - |
| 1777727574 | 8.33° C | 65% | 1022.9 hPa | 0 mm | - | 52 W/m² | - |
| 1777727271 | 7.78° C | 65% | 1022.8 hPa | 0 mm | - | 71 W/m² | - |
| 1777726969 | 7.78° C | 65% | 1022.8 hPa | 0 mm | - | 58 W/m² | - |
* Rain latest hour (hover to see other rain measurements)
** Current wind speed in m/s (hover to see current wind gust speed)